Regional Weather Roundup
Issued by NWS

Home | Current Version | Previous Version | Text Only | Print | Product List | Glossary On
Versions: 1 2 3 4 5 6 7 8 9 10 11 12 13 14 15 16 17 18 19 20 21 22 23 24 25 26 27 28 29 30 31 32 33 34 35 36 37 38 39 40 41 42 43 44 45 46 47 48 49 50
000
ASUS43 KMKX 281321
RWRWI

WISCONSIN REGIONAL WEATHER ROUNDUP
NATIONAL WEATHER SERVICE MILWAUKEE/SULLIVAN WI
800 AM CDT THU AUG 28 2014

NOTE: "FAIR" INDICATES FEW OR NO CLOUDS BELOW 12,000 FEET WITH NO
SIGNIFICANT WEATHER AND/OR OBSTRUCTIONS TO VISIBILITY.

WIZ001-002-006>008-014>016-023>028-281400-
NORTHWEST WISCONSIN

CITY           SKY/WX    TMP DP  RH WIND       PRES   REMARKS
SUPERIOR ARPT  FOG       52  52 100 CALM      30.12S VSB<1/4
ASHLAND        SUNNY     54  51  90 CALM      30.14S
HAYWARD        SUNNY     56  49  77 CALM      30.14S
SIREN          PTSUNNY   58  53  81 SE6       30.12R
RICE LAKE      SUNNY     57  49  76 E5        30.15S
LADYSMITH      SUNNY     55  49  79 E6        30.15F
EAU CLAIRE     SUNNY     59  52  77 NE5       30.12S
MENOMONIE      SUNNY     57  52  84 E3        30.12S
NEW RICHMOND   MOSUNNY   59  53  78 E5        30.11S
OSCEOLA        MOSUNNY   60  55  83 E8        30.13S
$$

WIZ003>005-009-010-017-018-281400-
NORTH CENTRAL WISCONSIN

CITY           SKY/WX    TMP DP  RH WIND       PRES   REMARKS
WOODRUFF       SUNNY     57  54  89 CALM      30.16S
RHINELANDER    SUNNY     51  49  92 CALM      30.18R
EAGLE RIVER    SUNNY     51  51  99 CALM      30.16F
LAND O LAKES   SUNNY     51  50  97 CALM      30.17F
PHILLIPS       SUNNY     54  49  84 SE3       30.15R
TOMAHAWK       SUNNY     49  48  98 CALM      30.16F
MEDFORD        SUNNY     54  51  90 E3        30.15R
MERRILL        SUNNY     51  50  97 CALM      30.16R
$$

WIZ029-030-035-036-043>047-281400-
CENTRAL WISCONSIN

CITY           SKY/WX    TMP DP  RH WIND       PRES   REMARKS
WAUSAU         FOG       52  51  97 SE5       30.16R VSB 1/2
MOSINEE        FOG       50  50 100 E5        30.17R VSB 1/8
MARSHFIELD     SUNNY     57  53  86 E7        30.14R
STEVENS POINT  FOG       53  53 100 CALM      30.16S VSB 1/4
WAUPACA        PTSUNNY   62  61  96 CALM      30.16S
WAUTOMA        PTSUNNY   61  61 100 CALM      30.16R FOG
WISC RAPIDS    FOG       56  55  97 E3        30.16R VSB 1/4
CAMP DOUGLAS   MOSUNNY   57  57 100 E2        30.13S
$$

WIZ011>013-019>022-031-037>040-048>050-281400-
NORTHEAST WISCONSIN

CITY           SKY/WX    TMP DP  RH WIND       PRES   REMARKS
ANTIGO         FOG       54  54 100 E5        30.17S VSB 1/4
STURGEON BAY   CLOUDY    61  55  82 SE3       30.18R
GREEN BAY      MOSUNNY   61  58  90 SE5       30.16S
MANITOWOC      PTSUNNY   63  58  83 SE10      30.17R
APPLETON       PTSUNNY   64  55  72 S8        30.16R
CLINTONVILLE   CLOUDY    59  57  94 CALM      30.16R
OSHKOSH        MOSUNNY   64  58  80 SE7       30.14S
$$

WIZ032>034-041-042-053>061-281400-
SOUTHWEST WISCONSIN

CITY           SKY/WX    TMP DP  RH WIND       PRES   REMARKS
LA CROSSE      PTSUNNY   63  58  83 E6        30.11R
SPARTA         SUNNY     60  57  91 CALM      30.13S
VIROQUA        CLOUDY    59  59 100 SE5       30.13S VSB 1/4
BOSCOBEL       MOSUNNY   63  60  90 N3        30.12S
PRAIRIE DU CHI SUNNY     63  60  91 E5        30.11R
PLATTEVILLE    FAIR      64  63  95 E9        30.12F
$$

WIZ056-057-062-063-064-067-068-281400-
SOUTH CENTRAL WISCONSIN

CITY           SKY/WX    TMP DP  RH WIND       PRES   REMARKS
BARABOO/DELLS  SUNNY     63  60  90 CALM      30.14S
LONE ROCK      PTSUNNY   64  61  90 SE8       30.13S FOG
WATERTOWN      SUNNY     61  60  95 E3        30.14F
MADISON        MOSUNNY   64  58  80 SE7       30.14S
MIDDLETON      FAIR      65  62  90 SE6       30.15S
MONROE         SUNNY     61  61 100 E9        30.13F
JANESVILLE     SUNNY     64  61  88 E7        30.14R
$$

WIZ051-052-058>065-066-070>072-281400-
SOUTHEAST WISCONSIN

CITY           SKY/WX    TMP DP  RH WIND       PRES   REMARKS
MILWAUKEE      MOSUNNY   66  56  70 SE12      30.16R
WAUKESHA       SUNNY     61  57  88 SE6       30.17S
MILWAUKEE/TIMM SUNNY     63  55  77 SE6       30.17R
RACINE         SUNNY     67  55  65 SE13      30.17S
BURLINGTON     SUNNY     60  59  97 E5        30.15S
KENOSHA        SUNNY     66  57  72 E10       30.16S
FOND DU LAC    SUNNY     62  56  80 MISG      30.15S
SHEBOYGAN      SUNNY     62  58  86 CALM      30.16S
WEST BEND      SUNNY     57  54  88 CALM      30.16S
JUNEAU         SUNNY     61  58  88 SE5       30.16S
$$

LSZ147-162-281400-
LAKE SUPERIOR

STATION/POSITION TIME  TEMP    WIND        PRES    WAVE
                       AIR SEA DIR/SP/G            HT/PER
                 (UTC) (F)     (DEG/KT/KT) (MB)    (FT/S)
W MID LAKE BUOY  1250   57 56  150/  4/  6 1020.5R   0
DEVILS ISLAND    1300   60     200/  4/  5 1020.2F
PORT WING        1200   54     140/  2/  4 1020.3S
SAXON HARBOR     1200   55     200/  5/  9 1020.3S
$$

LMZ867-665-643>646-281400-
LAKE MICHIGAN

STATION/POSITION TIME  TEMP    WIND        PRES    WAVE
                       AIR SEA DIR/SP/G            HT/PER
                 (UTC) (F)     (DEG/KT/KT) (MB)    (FT/S)
N MID LAKE BUOY  1250   62 65  130/  4/  4 1022.2R   0
NORTHPORT PIER   1200   62     170/  3/  5 1021.7S
SISTER BAY       1241   62        CALM       N/A
KEWAUNEE LAKESHO 1300   63     150/  9/ 12 1020.6R
SHEBOYGAN LAKESH 1300   65 68  140/ 12/ 14 1021.5R
ATWATER BUOY     1300   67     130/ 12/ 16 1022.2R
MILWAUKEE LAKESH 1300   67     130/ 12/ 14   N/A
S MID LAKE BUOY  1250   65 69   90/ 14/ 16 1021.1R   2/ 4
KENOSHA   LAKESH 1300   68     120/ 12/ 16 1020.7S
$$

TC  - TEMPERATURE IN CELSIUS
VSB - VISIBILITY IN STATUTE MILES
WCI - WIND CHILL INDEX
HX  - HEAT INDEX



USA.gov is the U.S. government's official web portal to all federal, state and local government web resources and services.